TimeEST,TemperatureF,Dew PointF,Humidity,Sea Level PressureIn,VisibilityMPH,Wind Direction,Wind SpeedMPH,Gust SpeedMPH,PrecipitationIn,Events,Conditions,WindDirDegrees,DateUTC
12:15 AM,32.0,23.0,69,30.39,10.0,West,3.5,-,N/A,,Clear,280,2012-11-29 05:15:00
12:35 AM,30.2,26.6,86,30.39,10.0,Calm,Calm,-,N/A,,Clear,0,2012-11-29 05:35:00
12:55 AM,32.0,23.0,69,30.39,10.0,West,3.5,-,N/A,,Clear,270,2012-11-29 05:55:00
1:15 AM,33.8,21.2,60,30.39,10.0,WNW,3.5,-,N/A,,Clear,300,2012-11-29 06:15:00
1:35 AM,32.0,23.0,69,30.39,10.0,Calm,Calm,-,N/A,,Clear,0,2012-11-29 06:35:00
1:55 AM,28.4,24.8,86,30.39,10.0,Calm,Calm,-,N/A,,Clear,0,2012-11-29 06:55:00
2:15 AM,32.0,23.0,69,30.40,10.0,WNW,3.5,-,N/A,,Clear,300,2012-11-29 07:15:00
2:35 AM,32.0,23.0,69,30.40,10.0,NW,3.5,-,N/A,,Clear,310,2012-11-29 07:35:00
2:55 AM,33.8,21.2,60,30.40,10.0,Calm,Calm,-,N/A,,Clear,0,2012-11-29 07:55:00
3:15 AM,33.8,19.4,56,30.40,10.0,Calm,Calm,-,N/A,,Clear,0,2012-11-29 08:15:00
3:35 AM,32.0,21.2,64,30.40,10.0,WNW,4.6,-,N/A,,Clear,300,2012-11-29 08:35:00
3:55 AM,33.8,21.2,60,30.40,10.0,WNW,4.6,-,N/A,,Clear,290,2012-11-29 08:55:00
4:15 AM,33.8,19.4,56,30.40,10.0,WNW,3.5,-,N/A,,Clear,300,2012-11-29 09:15:00
4:35 AM,33.8,19.4,56,30.39,10.0,Calm,Calm,-,N/A,,Clear,0,2012-11-29 09:35:00
4:55 AM,33.8,21.2,60,30.40,10.0,Calm,Calm,-,N/A,,Clear,0,2012-11-29 09:55:00
5:15 AM,33.8,21.2,60,30.40,10.0,Calm,Calm,-,N/A,,Clear,0,2012-11-29 10:15:00
5:35 AM,32.0,21.2,64,30.40,10.0,Calm,Calm,-,N/A,,Clear,0,2012-11-29 10:35:00
5:55 AM,30.2,21.2,69,30.41,10.0,Calm,Calm,-,N/A,,Clear,0,2012-11-29 10:55:00
6:15 AM,32.0,21.2,64,30.41,10.0,Calm,Calm,-,N/A,,Clear,0,2012-11-29 11:15:00
6:55 AM,30.2,21.2,69,30.43,10.0,Calm,Calm,-,N/A,,Clear,0,2012-11-29 11:55:00
7:15 AM,32.0,21.2,64,30.44,10.0,Calm,Calm,-,N/A,,Clear,0,2012-11-29 12:15:00
7:35 AM,32.0,21.2,64,30.44,10.0,Calm,Calm,-,N/A,,Clear,0,2012-11-29 12:35:00
7:55 AM,32.0,23.0,69,30.45,10.0,Calm,Calm,-,N/A,,Clear,0,2012-11-29 12:55:00
8:15 AM,33.8,23.0,65,30.45,10.0,Calm,Calm,-,N/A,,Clear,0,2012-11-29 13:15:00
8:35 AM,35.6,23.0,60,30.45,10.0,Calm,Calm,-,N/A,,Clear,0,2012-11-29 13:35:00
8:55 AM,37.4,26.6,65,30.45,10.0,Calm,Calm,-,N/A,,Clear,0,2012-11-29 13:55:00
9:15 AM,37.4,24.8,60,30.46,10.0,Calm,Calm,-,N/A,,Clear,0,2012-11-29 14:15:00
9:35 AM,41.0,24.8,53,30.46,10.0,NW,3.5,-,N/A,,Clear,320,2012-11-29 14:35:00
9:55 AM,42.8,24.8,49,30.47,10.0,Calm,Calm,-,N/A,,Clear,0,2012-11-29 14:55:00
10:15 AM,42.8,23.0,46,30.47,10.0,Calm,Calm,-,N/A,,Clear,0,2012-11-29 15:15:00
10:35 AM,42.8,23.0,46,30.47,10.0,Calm,Calm,-,N/A,,Clear,0,2012-11-29 15:35:00
10:55 AM,44.6,23.0,43,30.47,10.0,Calm,Calm,-,N/A,,Clear,0,2012-11-29 15:55:00
11:15 AM,44.6,21.2,39,30.46,10.0,WSW,3.5,-,N/A,,Clear,240,2012-11-29 16:15:00
11:35 AM,46.4,23.0,40,30.46,10.0,West,3.5,-,N/A,,Clear,280,2012-11-29 16:35:00
11:55 AM,46.4,23.0,40,30.45,10.0,WSW,3.5,-,N/A,,Clear,250,2012-11-29 16:55:00
12:15 PM,46.4,21.2,37,30.44,10.0,Calm,Calm,-,N/A,,Clear,0,2012-11-29 17:15:00
12:35 PM,50.0,23.0,35,30.44,10.0,Calm,Calm,-,N/A,,Clear,0,2012-11-29 17:35:00
12:55 PM,50.0,23.0,35,30.42,10.0,West,3.5,-,N/A,,Clear,270,2012-11-29 17:55:00
1:15 PM,50.0,23.0,35,30.42,10.0,SSW,6.9,-,N/A,,Clear,210,2012-11-29 18:15:00
1:35 PM,50.0,23.0,35,30.41,10.0,West,8.1,-,N/A,,Clear,270,2012-11-29 18:35:00
1:55 PM,50.0,23.0,35,30.39,10.0,SW,8.1,-,N/A,,Clear,220,2012-11-29 18:55:00
2:15 PM,-9999,-9999,N/A,-9999,-9999.0,North,-9999.0,-,N/A,,Unknown,0,2012-11-29 19:15:00
2:35 PM,51.8,24.8,35,30.38,10.0,SSW,3.5,-,0.03,,Clear,200,2012-11-29 19:35:00
2:55 PM,51.4,24.1,34,30.38,10.0,SSW,4.6,-,0.03,,Clear,210,2012-11-29 19:55:00
3:15 PM,51.6,23.5,33,30.38,10.0,Calm,Calm,-,N/A,,Clear,0,2012-11-29 20:15:00
3:35 PM,51.8,25.0,35,30.37,10.0,WSW,4.6,-,N/A,,Clear,240,2012-11-29 20:35:00
3:55 PM,50.9,24.1,35,30.37,10.0,South,4.6,-,N/A,,Clear,190,2012-11-29 20:55:00
4:15 PM,50.4,24.3,36,30.37,10.0,South,4.6,-,N/A,,Clear,170,2012-11-29 21:15:00
4:35 PM,49.1,25.3,40,30.37,10.0,South,5.8,-,N/A,,Clear,180,2012-11-29 21:35:00
4:55 PM,48.0,25.0,41,30.37,10.0,South,3.5,-,N/A,,Clear,190,2012-11-29 21:55:00
5:15 PM,45.7,25.7,46,30.37,10.0,South,3.5,-,N/A,,Clear,170,2012-11-29 22:15:00
5:35 PM,44.6,26.2,49,30.37,10.0,Calm,Calm,-,N/A,,Clear,0,2012-11-29 22:35:00
5:55 PM,43.0,27.1,54,30.38,10.0,Calm,Calm,-,N/A,,Clear,0,2012-11-29 22:55:00
6:15 PM,43.0,26.1,51,30.38,10.0,Calm,Calm,-,N/A,,Clear,0,2012-11-29 23:15:00
6:35 PM,42.8,25.9,51,30.38,10.0,South,3.5,-,N/A,,Clear,190,2012-11-29 23:35:00
6:55 PM,41.0,26.6,57,30.39,10.0,Calm,Calm,-,N/A,,Clear,0,2012-11-29 23:55:00
7:15 PM,40.1,27.1,60,30.39,10.0,SSE,3.5,-,N/A,,Clear,160,2012-11-30 00:15:00
7:35 PM,41.2,25.7,54,30.39,10.0,Calm,Calm,-,N/A,,Clear,0,2012-11-30 00:35:00
7:55 PM,40.6,25.7,55,30.39,10.0,Calm,Calm,-,N/A,,Clear,0,2012-11-30 00:55:00
8:15 PM,39.7,26.1,58,30.39,10.0,Calm,Calm,-,N/A,,Clear,0,2012-11-30 01:15:00
8:35 PM,40.3,26.2,57,30.40,10.0,SSW,4.6,-,N/A,,Clear,200,2012-11-30 01:35:00
8:55 PM,37.8,25.9,62,30.40,10.0,SW,4.6,-,N/A,,Clear,220,2012-11-30 01:55:00
9:15 PM,33.3,28.4,82,30.40,10.0,Calm,Calm,-,N/A,,Clear,0,2012-11-30 02:15:00
9:35 PM,36.0,27.5,71,30.40,10.0,South,3.5,-,N/A,,Clear,190,2012-11-30 02:35:00
9:55 PM,36.1,27.1,70,30.40,10.0,SSW,3.5,-,N/A,,Clear,200,2012-11-30 02:55:00
10:15 PM,37.8,26.4,64,30.40,10.0,SSW,3.5,-,N/A,,Clear,200,2012-11-30 03:15:00
10:35 PM,35.1,27.0,72,30.39,10.0,SSW,3.5,-,N/A,,Clear,210,2012-11-30 03:35:00
10:55 PM,36.3,27.0,69,30.39,10.0,SSW,3.5,-,N/A,,Clear,210,2012-11-30 03:55:00
11:15 PM,32.4,26.8,80,30.39,10.0,SSW,3.5,-,N/A,,Clear,210,2012-11-30 04:15:00
11:35 PM,36.5,27.3,69,30.39,10.0,SSW,4.6,-,N/A,,Clear,200,2012-11-30 04:35:00
11:55 PM,32.5,25.7,76,30.38,10.0,SSW,3.5,-,N/A,,Clear,200,2012-11-30 04:55:00